RYR7986 EBCI-LGIR

Flight info

Callsign RYR7986
Flight time N/A
Altitude 37000
Route SOPOK Y863 OGLOR DCT EMGOD L607 ULNOK DCT VIBOM DCT NOMBO DCT RIDAR DCT RADIZ DCT GORPA DCT PETAK DCT PINDO DCT PIKOS UL607 GIVIS T514 XAVIS
Aircraft B738/M-SDE2E3FGHIRWXY/LB1

Departure

Time 2026-05-07 11:45
Airport Brussels South Charleroi Airport (EBCI)

Arrival

Time N/A
Airport Heraklion International Nikos Kazantzakis Airport (LGIR)
Time Latitude Longitude Altitude Speed Heading
2026-05-07 11:37 50.46943 4.47343 622 ft 0 kts 335°
2026-05-07 11:38 50.46925 4.47358 622 ft 4 kts 327°
2026-05-07 11:39 50.46906 4.47385 622 ft 4 kts 297°
2026-05-07 11:40 50.46903 4.47418 622 ft 0 kts 245°
2026-05-07 11:41 50.46887 4.47363 622 ft 11 kts 245°
2026-05-07 11:41 50.46812 4.47348 622 ft 15 kts 166°
2026-05-07 11:41 50.46734 4.47239 622 ft 17 kts 245°
2026-05-07 11:42 50.46681 4.47051 622 ft 21 kts 246°
2026-05-07 11:42 50.46614 4.46816 622 ft 26 kts 245°
2026-05-07 11:42 50.46535 4.46548 622 ft 28 kts 245°
2026-05-07 11:42 50.46457 4.46282 622 ft 26 kts 245°
2026-05-07 11:43 50.46388 4.46040 622 ft 23 kts 245°
2026-05-07 11:43 50.46314 4.45794 622 ft 27 kts 245°
2026-05-07 11:43 50.46242 4.45538 622 ft 26 kts 246°
2026-05-07 11:43 50.46165 4.45266 622 ft 27 kts 245°
2026-05-07 11:44 50.46089 4.45010 622 ft 25 kts 245°
2026-05-07 11:44 50.46010 4.44789 622 ft 23 kts 201°
2026-05-07 11:44 50.45885 4.44868 622 ft 24 kts 87°
2026-05-07 11:44 50.46000 4.45326 622 ft 78 kts 64°
2026-05-07 11:45 50.46335 4.46485 624 ft 153 kts 65°
2026-05-07 11:45 50.46831 4.48187 1180 ft 175 kts 64°
2026-05-07 11:45 50.47406 4.49851 2235 ft 173 kts 55°
2026-05-07 11:45 50.48173 4.51261 3216 ft 170 kts 46°
2026-05-07 11:46 50.49025 4.52682 3703 ft 191 kts 46°
2026-05-07 11:46 50.49998 4.54300 4028 ft 216 kts 46°
2026-05-07 11:46 50.51084 4.56110 4394 ft 239 kts 46°
2026-05-07 11:46 50.52287 4.58119 4956 ft 257 kts 46°
2026-05-07 11:47 50.53461 4.60287 5747 ft 264 kts 53°
2026-05-07 11:47 50.54246 4.62909 6577 ft 269 kts 77°
2026-05-07 11:47 50.54264 4.65860 7409 ft 275 kts 100°
2026-05-07 11:47 50.53648 4.68728 8245 ft 279 kts 111°
2026-05-07 11:48 50.52975 4.71610 9056 ft 284 kts 109°
2026-05-07 11:48 50.52310 4.74564 9669 ft 289 kts 109°
2026-05-07 11:48 50.51631 4.77555 10331 ft 293 kts 109°
2026-05-07 11:48 50.50919 4.80670 10908 ft 307 kts 109°
2026-05-07 11:49 50.50172 4.83922 11275 ft 326 kts 110°
2026-05-07 11:49 50.49388 4.87324 11918 ft 334 kts 110°
2026-05-07 11:49 50.48590 4.90768 12667 ft 338 kts 110°
2026-05-07 11:49 50.47780 4.94259 13430 ft 342 kts 110°
2026-05-07 11:50 50.46960 4.97780 14148 ft 347 kts 110°
2026-05-07 11:50 50.46126 5.01360 14876 ft 350 kts 110°
2026-05-07 11:50 50.45283 5.04965 15589 ft 354 kts 110°
2026-05-07 11:50 50.44430 5.08608 16252 ft 358 kts 110°
2026-05-07 11:51 50.43567 5.12291 16936 ft 361 kts 110°
2026-05-07 11:51 50.42694 5.16006 17602 ft 365 kts 110°
2026-05-07 11:51 50.41826 5.19761 18251 ft 368 kts 110°
2026-05-07 11:51 50.40971 5.23568 18884 ft 372 kts 110°
2026-05-07 11:52 50.40096 5.27411 19507 ft 375 kts 110°
2026-05-07 11:52 50.39206 5.31272 20109 ft 379 kts 110°
2026-05-07 11:52 50.38301 5.35166 20705 ft 382 kts 110°
2026-05-07 11:52 50.37386 5.39084 21282 ft 385 kts 110°
2026-05-07 11:53 50.36457 5.43043 21844 ft 389 kts 110°
2026-05-07 11:53 50.35519 5.47027 22389 ft 392 kts 110°
2026-05-07 11:53 50.34571 5.51045 22889 ft 396 kts 111°
2026-05-07 11:53 50.33610 5.55109 23409 ft 399 kts 111°
2026-05-07 11:54 50.32643 5.59184 23911 ft 402 kts 111°
2026-05-07 11:54 50.31664 5.63304 24404 ft 405 kts 111°
2026-05-07 11:54 50.30679 5.67441 24925 ft 407 kts 110°
2026-05-07 11:54 50.29689 5.71595 25405 ft 409 kts 110°
2026-05-07 11:55 50.28719 5.75796 25878 ft 411 kts 110°
2026-05-07 11:55 50.27729 5.80011 26353 ft 413 kts 110°
2026-05-07 11:55 50.26720 5.84229 26792 ft 415 kts 110°
2026-05-07 11:55 50.25697 5.88465 27227 ft 417 kts 110°
2026-05-07 11:56 50.24666 5.92714 27654 ft 419 kts 110°
2026-05-07 11:56 50.23627 5.96983 28067 ft 421 kts 110°
2026-05-07 11:56 50.22582 6.01267 28477 ft 423 kts 110°
2026-05-07 11:56 50.21541 6.05529 28871 ft 425 kts 110°
2026-05-07 11:57 50.20482 6.09862 29237 ft 427 kts 110°
2026-05-07 11:57 50.19469 6.14232 29602 ft 428 kts 105°
2026-05-07 11:57 50.18837 6.18770 29954 ft 428 kts 97°
2026-05-07 11:57 50.18667 6.23422 30276 ft 430 kts 89°
2026-05-07 11:58 50.18794 6.28090 30545 ft 433 kts 85°
2026-05-07 11:58 50.19072 6.32785 30818 ft 435 kts 83°
2026-05-07 11:58 50.19382 6.37496 31093 ft 438 kts 84°
2026-05-07 11:58 50.19677 6.42244 31364 ft 441 kts 84°
2026-05-07 11:59 50.19966 6.47011 31629 ft 443 kts 84°
2026-05-07 11:59 50.20254 6.51817 31882 ft 446 kts 84°
2026-05-07 11:59 50.20543 6.56652 32120 ft 448 kts 84°
2026-05-07 11:59 50.20837 6.61565 32414 ft 449 kts 84°
2026-05-07 12:00 50.21004 6.66425 32770 ft 449 kts 89°
2026-05-07 12:00 50.20951 6.71301 33086 ft 450 kts 92°
2026-05-07 12:00 50.20818 6.76189 33411 ft 449 kts 92°
2026-05-07 12:00 50.20697 6.81059 33701 ft 450 kts 92°
2026-05-07 12:01 50.20617 6.85948 33989 ft 450 kts 91°
2026-05-07 12:01 50.20550 6.90839 34309 ft 450 kts 91°
2026-05-07 12:01 50.20460 6.95715 34584 ft 451 kts 92°
2026-05-07 12:01 50.20356 7.00612 34822 ft 452 kts 92°
2026-05-07 12:02 50.20246 7.05515 35126 ft 452 kts 92°
2026-05-07 12:02 50.20133 7.10421 35382 ft 453 kts 92°
2026-05-07 12:02 50.20017 7.15338 35632 ft 453 kts 92°
2026-05-07 12:02 50.19901 7.20239 35913 ft 453 kts 92°
2026-05-07 12:03 50.19783 7.25157 36134 ft 454 kts 93°
2026-05-07 12:03 50.19520 7.30075 36393 ft 454 kts 98°
2026-05-07 12:03 50.18979 7.34922 36610 ft 454 kts 104°
2026-05-07 12:03 50.18169 7.39684 36865 ft 453 kts 108°
2026-05-07 12:04 50.17223 7.44370 37089 ft 454 kts 109°
2026-05-07 12:04 50.16250 7.49048 37344 ft 453 kts 109°
2026-05-07 12:04 50.15256 7.53738 37553 ft 454 kts 109°
2026-05-07 12:04 50.14270 7.58344 37747 ft 455 kts 110°
2026-05-07 12:05 50.13265 7.63016 37983 ft 455 kts 110°
2026-05-07 12:05 50.12257 7.67689 38178 ft 455 kts 110°
2026-05-07 12:05 50.11248 7.72358 38389 ft 455 kts 110°
2026-05-07 12:05 50.10236 7.77035 38615 ft 455 kts 110°
2026-05-07 12:06 50.09226 7.81703 38785 ft 456 kts 110°
2026-05-07 12:06 50.08167 7.86353 38980 ft 455 kts 114°
2026-05-07 12:06 50.06876 7.90860 39028 ft 456 kts 118°
2026-05-07 12:07 50.03574 7.99303 39041 ft 457 kts 126°
2026-05-07 12:07 50.00035 8.07477 39041 ft 455 kts 126°
2026-05-07 12:08 49.96481 8.15605 39040 ft 455 kts 126°
2026-05-07 12:08 49.92912 8.23725 39040 ft 455 kts 126°
2026-05-07 12:09 49.89339 8.31833 39041 ft 455 kts 126°
2026-05-07 12:09 49.85765 8.39935 39045 ft 455 kts 126°
2026-05-07 12:10 49.81971 8.47782 39046 ft 456 kts 131°
2026-05-07 12:10 49.77962 8.55404 39048 ft 457 kts 131°
2026-05-07 12:11 49.73979 8.63048 39051 ft 457 kts 131°
2026-05-07 12:11 49.69990 8.70714 39052 ft 457 kts 131°
2026-05-07 12:12 49.66023 8.78385 39051 ft 457 kts 130°
2026-05-07 12:12 49.62091 8.86102 39051 ft 458 kts 131°
2026-05-07 12:13 49.58749 8.92506 39051 ft 458 kts 131°
2026-05-07 12:13 49.54769 9.00083 39052 ft 458 kts 131°
2026-05-07 12:14 49.50756 9.07703 39052 ft 458 kts 131°
2026-05-07 12:14 49.46741 9.15365 39051 ft 458 kts 129°
2026-05-07 12:15 49.43160 9.23436 39049 ft 460 kts 125°
2026-05-07 12:15 49.39696 9.31704 39045 ft 460 kts 125°
2026-05-07 12:16 49.36192 9.39918 39041 ft 460 kts 126°
2026-05-07 12:16 49.32651 9.48156 39039 ft 460 kts 126°
2026-05-07 12:17 49.29118 9.56344 39041 ft 460 kts 126°
2026-05-07 12:17 49.25621 9.64548 39042 ft 460 kts 125°
2026-05-07 12:18 49.22141 9.72770 39046 ft 460 kts 126°
2026-05-07 12:18 49.18614 9.80934 39049 ft 460 kts 126°
2026-05-07 12:19 49.15056 9.89078 39050 ft 461 kts 126°
2026-05-07 12:19 49.11491 9.97207 39048 ft 461 kts 126°
2026-05-07 12:20 49.07915 10.05329 39048 ft 460 kts 128°
2026-05-07 12:20 49.03817 10.12745 39046 ft 457 kts 137°
2026-05-07 12:21 48.99316 10.19558 39043 ft 456 kts 138°
2026-05-07 12:21 48.94802 10.26348 39042 ft 457 kts 138°
2026-05-07 12:22 48.90283 10.33144 39040 ft 457 kts 138°
2026-05-07 12:22 48.85763 10.39931 39035 ft 457 kts 138°
2026-05-07 12:23 48.81255 10.46714 39030 ft 457 kts 137°
2026-05-07 12:23 48.76811 10.53527 39029 ft 457 kts 138°
2026-05-07 12:24 48.72263 10.60332 39028 ft 457 kts 139°
2026-05-07 12:24 48.67726 10.67074 39025 ft 457 kts 139°
2026-05-07 12:25 48.63191 10.73795 39024 ft 457 kts 139°
2026-05-07 12:25 48.58685 10.80548 39024 ft 458 kts 136°
2026-05-07 12:26 48.54561 10.87908 39024 ft 459 kts 131°
2026-05-07 12:26 48.50575 10.95415 39024 ft 459 kts 132°
2026-05-07 12:27 48.46547 11.02886 39024 ft 458 kts 132°
2026-05-07 12:27 48.42506 11.10324 39023 ft 459 kts 133°
2026-05-07 12:28 48.38453 11.17748 39023 ft 458 kts 133°
2026-05-07 12:28 48.34436 11.25192 39023 ft 459 kts 132°
2026-05-07 12:29 48.30419 11.32619 39023 ft 458 kts 133°
2026-05-07 12:29 48.26378 11.40024 39024 ft 458 kts 133°
2026-05-07 12:30 48.22329 11.47405 39023 ft 458 kts 133°
2026-05-07 12:30 48.18282 11.54758 39024 ft 458 kts 133°
2026-05-07 12:31 48.14214 11.62125 39023 ft 458 kts 133°
2026-05-07 12:31 48.10157 11.69451 39023 ft 458 kts 133°
2026-05-07 12:32 48.06085 11.76786 39023 ft 458 kts 133°
2026-05-07 12:32 48.02015 11.84095 39017 ft 458 kts 134°
2026-05-07 12:33 47.95900 11.95043 39013 ft 458 kts 134°
2026-05-07 12:33 47.91814 12.02332 39011 ft 458 kts 134°
2026-05-07 12:34 47.87731 12.09598 39011 ft 458 kts 134°
2026-05-07 12:34 47.83644 12.16851 39010 ft 458 kts 134°
2026-05-07 12:35 47.79580 12.24134 39010 ft 458 kts 134°
2026-05-07 12:35 47.75473 12.31375 39018 ft 457 kts 134°
2026-05-07 12:36 47.71359 12.38586 39024 ft 457 kts 134°
2026-05-07 12:36 47.67247 12.45779 39024 ft 457 kts 134°
2026-05-07 12:37 47.63125 12.52980 39025 ft 457 kts 134°
2026-05-07 12:37 47.58895 12.59992 39025 ft 456 kts 137°
2026-05-07 12:38 47.54532 12.66814 39025 ft 456 kts 137°
2026-05-07 12:38 47.50189 12.73642 39025 ft 455 kts 137°
2026-05-07 12:39 47.45862 12.80450 39025 ft 455 kts 137°
2026-05-07 12:39 47.41526 12.87268 39025 ft 455 kts 138°
2026-05-07 12:40 47.37210 12.94110 39025 ft 455 kts 137°
2026-05-07 12:40 47.32910 13.00962 39025 ft 455 kts 137°
2026-05-07 12:41 47.28588 13.07787 39017 ft 455 kts 138°
2026-05-07 12:41 47.24232 13.14630 39014 ft 455 kts 138°
2026-05-07 12:42 47.19902 13.21407 39011 ft 454 kts 138°
2026-05-07 12:42 47.15574 13.28160 39008 ft 454 kts 138°
2026-05-07 12:43 47.11238 13.34908 39004 ft 454 kts 138°
2026-05-07 12:43 47.06900 13.41639 38981 ft 454 kts 138°
2026-05-07 12:44 47.02560 13.48358 38964 ft 454 kts 139°
2026-05-07 12:44 46.98232 13.55040 38954 ft 454 kts 139°
2026-05-07 12:45 46.93851 13.61788 38950 ft 454 kts 139°
2026-05-07 12:45 46.89494 13.68482 38948 ft 454 kts 139°
2026-05-07 12:46 46.85132 13.75166 38945 ft 454 kts 139°
2026-05-07 12:46 46.80764 13.81842 38942 ft 454 kts 139°
2026-05-07 12:47 46.76398 13.88499 38940 ft 454 kts 139°
2026-05-07 12:47 46.72025 13.95150 38938 ft 455 kts 139°
2026-05-07 12:48 46.67648 14.01791 38938 ft 454 kts 139°
2026-05-07 12:48 46.63272 14.08413 38939 ft 453 kts 140°
2026-05-07 12:49 46.58902 14.15010 38939 ft 453 kts 140°
2026-05-07 12:49 46.54526 14.21599 38939 ft 454 kts 140°
2026-05-07 12:50 46.50160 14.28158 38941 ft 454 kts 140°
2026-05-07 12:50 46.45772 14.34733 38944 ft 454 kts 140°
2026-05-07 12:51 46.41374 14.41306 38950 ft 454 kts 140°
2026-05-07 12:51 46.37691 14.46799 38955 ft 454 kts 140°
2026-05-07 12:52 46.33297 14.53338 38960 ft 453 kts 140°
2026-05-07 12:52 46.28893 14.59875 38962 ft 453 kts 140°
2026-05-07 12:53 46.24489 14.66397 38962 ft 453 kts 140°
2026-05-07 12:53 46.20076 14.72914 38964 ft 453 kts 140°
2026-05-07 12:54 46.15668 14.79410 38970 ft 453 kts 140°
2026-05-07 12:54 46.11252 14.85901 38973 ft 453 kts 140°
2026-05-07 12:55 46.06867 14.92332 38976 ft 453 kts 140°
2026-05-07 12:55 46.02340 14.98954 38980 ft 452 kts 140°
2026-05-07 12:56 45.97933 15.05436 38983 ft 453 kts 140°
2026-05-07 12:56 45.93499 15.11910 38987 ft 456 kts 141°
2026-05-07 12:57 45.89035 15.18374 38990 ft 454 kts 141°
2026-05-07 12:57 45.84586 15.24797 38995 ft 454 kts 141°
2026-05-07 12:58 45.80140 15.31206 38996 ft 454 kts 141°
2026-05-07 12:58 45.75490 15.37216 38998 ft 447 kts 148°
2026-05-07 12:59 45.70557 15.42538 38997 ft 447 kts 149°
2026-05-07 12:59 45.65606 15.47832 38996 ft 446 kts 149°
2026-05-07 13:00 45.60599 15.53171 38998 ft 446 kts 149°
2026-05-07 13:00 45.55596 15.58495 39007 ft 446 kts 149°
2026-05-07 13:01 45.50642 15.63753 39012 ft 446 kts 149°
2026-05-07 13:01 45.45676 15.69092 39014 ft 448 kts 149°
2026-05-07 13:02 45.40701 15.74415 39016 ft 447 kts 149°
2026-05-07 13:02 45.35718 15.79713 39017 ft 447 kts 149°
2026-05-07 13:03 45.30688 15.85040 39018 ft 448 kts 149°
2026-05-07 13:03 45.25692 15.90315 39019 ft 448 kts 149°
2026-05-07 13:04 45.20677 15.95597 39020 ft 449 kts 149°
2026-05-07 13:04 45.15660 16.00868 39019 ft 449 kts 149°
2026-05-07 13:05 45.10645 16.06124 39023 ft 448 kts 149°
2026-05-07 13:05 45.05637 16.11363 39029 ft 449 kts 149°
2026-05-07 13:06 45.00606 16.16612 39029 ft 449 kts 149°
2026-05-07 13:06 44.95571 16.21854 39032 ft 450 kts 149°
2026-05-07 13:07 44.90532 16.27089 39037 ft 450 kts 149°
2026-05-07 13:07 44.85481 16.32325 39040 ft 451 kts 149°
2026-05-07 13:08 44.80424 16.37555 39041 ft 451 kts 150°
2026-05-07 13:08 44.75366 16.42775 39042 ft 452 kts 150°
2026-05-07 13:09 44.70294 16.47996 39049 ft 451 kts 150°
2026-05-07 13:09 44.65222 16.53207 39052 ft 452 kts 150°
2026-05-07 13:10 44.60145 16.58412 39058 ft 452 kts 150°
2026-05-07 13:10 44.55061 16.63611 39058 ft 452 kts 150°
2026-05-07 13:11 44.50013 16.68763 39061 ft 452 kts 150°
2026-05-07 13:11 44.44903 16.73967 39062 ft 452 kts 150°
2026-05-07 13:12 44.39816 16.79135 39063 ft 452 kts 150°
2026-05-07 13:12 44.34760 16.84262 39065 ft 452 kts 150°
2026-05-07 13:13 44.29674 16.89407 39067 ft 451 kts 150°
2026-05-07 13:13 44.24585 16.94543 39069 ft 451 kts 150°
2026-05-07 13:14 44.19503 16.99663 39071 ft 450 kts 150°
2026-05-07 13:14 44.14393 17.04798 39073 ft 450 kts 150°
2026-05-07 13:15 44.09314 17.09892 39075 ft 450 kts 150°
2026-05-07 13:15 44.04226 17.14983 39077 ft 450 kts 150°
2026-05-07 13:16 43.99178 17.20024 39081 ft 450 kts 150°
2026-05-07 13:16 43.94037 17.25146 39083 ft 455 kts 150°
2026-05-07 13:17 43.88914 17.30239 39084 ft 455 kts 150°
2026-05-07 13:17 43.83787 17.35325 39086 ft 453 kts 150°
2026-05-07 13:18 43.78623 17.40438 39083 ft 453 kts 150°
2026-05-07 13:18 43.73494 17.45505 39083 ft 452 kts 150°
2026-05-07 13:19 43.68375 17.50550 39085 ft 452 kts 150°
2026-05-07 13:19 43.63247 17.55594 39088 ft 452 kts 150°
2026-05-07 13:20 43.58123 17.60622 39091 ft 452 kts 150°
2026-05-07 13:20 43.53026 17.65614 39096 ft 452 kts 150°
2026-05-07 13:21 43.47864 17.70660 39101 ft 453 kts 150°
2026-05-07 13:21 43.42725 17.75671 39105 ft 453 kts 150°
2026-05-07 13:22 43.37570 17.80687 39109 ft 453 kts 150°
2026-05-07 13:22 43.32417 17.85691 39111 ft 454 kts 150°
2026-05-07 13:23 43.27253 17.90696 39112 ft 455 kts 150°
2026-05-07 13:23 43.22077 17.95701 39111 ft 455 kts 150°
2026-05-07 13:24 43.16891 18.00705 39109 ft 456 kts 150°
2026-05-07 13:24 43.12556 18.04879 39107 ft 454 kts 150°
2026-05-07 13:25 43.07388 18.09847 39106 ft 454 kts 150°
2026-05-07 13:25 43.02206 18.14818 39106 ft 455 kts 150°
2026-05-07 13:26 42.97016 18.19785 39105 ft 456 kts 150°
2026-05-07 13:26 42.91813 18.24755 39106 ft 457 kts 150°
2026-05-07 13:27 42.86600 18.29724 39108 ft 458 kts 150°
2026-05-07 13:27 42.81385 18.34684 39111 ft 458 kts 150°
2026-05-07 13:28 42.76150 18.39653 39112 ft 459 kts 151°
2026-05-07 13:28 42.70922 18.44605 39111 ft 458 kts 151°
2026-05-07 13:29 42.65679 18.49560 39111 ft 459 kts 151°
2026-05-07 13:29 42.60429 18.54512 39111 ft 459 kts 151°
2026-05-07 13:30 42.55185 18.59448 39112 ft 459 kts 151°
2026-05-07 13:30 42.49934 18.64380 39111 ft 459 kts 151°
2026-05-07 13:31 42.44676 18.69309 39112 ft 459 kts 151°
2026-05-07 13:31 42.39419 18.74226 39112 ft 459 kts 151°
2026-05-07 13:32 42.34169 18.79127 39112 ft 459 kts 151°
2026-05-07 13:32 42.28910 18.84026 39111 ft 459 kts 151°
2026-05-07 13:33 42.23651 18.88915 39111 ft 459 kts 151°
2026-05-07 13:33 42.18390 18.93796 39109 ft 458 kts 151°
2026-05-07 13:34 42.10517 19.01082 39108 ft 458 kts 151°
2026-05-07 13:35 42.05265 19.05929 39107 ft 458 kts 151°
2026-05-07 13:35 42.00032 19.10786 39105 ft 457 kts 151°
2026-05-07 13:36 41.94762 19.15632 39101 ft 462 kts 152°
2026-05-07 13:36 41.89408 19.20530 39099 ft 468 kts 152°
2026-05-07 13:37 41.84033 19.25438 39095 ft 467 kts 152°
2026-05-07 13:37 41.78695 19.30358 39085 ft 467 kts 149°
2026-05-07 13:38 41.73786 19.36152 39082 ft 472 kts 141°
2026-05-07 13:38 41.69081 19.42301 39075 ft 472 kts 141°
2026-05-07 13:39 41.64381 19.48403 39070 ft 471 kts 141°
2026-05-07 13:39 41.59671 19.54492 39066 ft 471 kts 141°
2026-05-07 13:40 41.54955 19.60571 39060 ft 471 kts 141°
2026-05-07 13:40 41.50252 19.66675 39057 ft 471 kts 141°
2026-05-07 13:41 41.45557 19.72771 39055 ft 471 kts 141°
2026-05-07 13:41 41.40841 19.78851 39055 ft 472 kts 141°
2026-05-07 13:42 41.36107 19.84932 39055 ft 473 kts 141°
2026-05-07 13:42 41.31366 19.91006 39056 ft 474 kts 141°
2026-05-07 13:43 41.26634 19.97052 39059 ft 475 kts 141°
2026-05-07 13:43 41.21863 20.03135 39066 ft 475 kts 141°
2026-05-07 13:44 41.17110 20.09183 39074 ft 472 kts 141°
2026-05-07 13:44 41.12366 20.15208 39085 ft 474 kts 141°
2026-05-07 13:45 41.07580 20.21272 39097 ft 476 kts 141°
2026-05-07 13:45 41.02785 20.27334 39109 ft 477 kts 141°
2026-05-07 13:46 40.97976 20.33402 39121 ft 478 kts 141°
2026-05-07 13:46 40.93143 20.39487 39132 ft 479 kts 141°
2026-05-07 13:47 40.88310 20.45560 39139 ft 481 kts 141°
2026-05-07 13:47 40.83455 20.51646 39143 ft 481 kts 141°
2026-05-07 13:48 40.78594 20.57729 39143 ft 482 kts 141°
2026-05-07 13:48 40.73728 20.63804 39143 ft 481 kts 141°
2026-05-07 13:49 40.68708 20.70102 39141 ft 482 kts 141°
2026-05-07 13:49 40.63837 20.76164 39138 ft 482 kts 141°
2026-05-07 13:50 40.58988 20.82164 39139 ft 482 kts 141°
2026-05-07 13:50 40.54064 20.88243 39152 ft 482 kts 141°
2026-05-07 13:51 40.49169 20.94278 39154 ft 482 kts 141°
2026-05-07 13:51 40.44268 21.00112 39154 ft 479 kts 144°
2026-05-07 13:52 40.39176 21.05902 39153 ft 480 kts 144°
2026-05-07 13:52 40.34144 21.11657 39152 ft 479 kts 143°
2026-05-07 13:53 40.29132 21.17394 39153 ft 480 kts 143°
2026-05-07 13:53 40.24129 21.23116 39152 ft 479 kts 143°
2026-05-07 13:54 40.19094 21.28939 39152 ft 479 kts 143°
2026-05-07 13:54 40.14084 21.34702 39152 ft 478 kts 143°
2026-05-07 13:55 40.09918 21.39447 39152 ft 478 kts 143°
2026-05-07 13:55 40.04870 21.45178 39154 ft 477 kts 143°
2026-05-07 13:56 39.99687 21.51051 39153 ft 478 kts 143°
2026-05-07 13:56 39.94647 21.56753 39155 ft 482 kts 143°
2026-05-07 13:57 39.89564 21.62481 39151 ft 482 kts 144°
2026-05-07 13:57 39.84472 21.68198 39150 ft 480 kts 144°
2026-05-07 13:58 39.79410 21.73871 39148 ft 480 kts 144°
2026-05-07 13:58 39.74352 21.79529 39146 ft 479 kts 144°
2026-05-07 13:59 39.69297 21.85186 39143 ft 480 kts 143°
2026-05-07 13:59 39.64256 21.90880 39141 ft 481 kts 143°
2026-05-07 14:00 39.59192 21.96551 39136 ft 480 kts 144°
2026-05-07 14:00 39.54156 22.02167 39136 ft 481 kts 143°
2026-05-07 14:01 39.49079 22.07820 39130 ft 481 kts 144°
2026-05-07 14:01 39.43993 22.13464 39127 ft 483 kts 144°
2026-05-07 14:02 39.38891 22.19109 39123 ft 483 kts 144°
2026-05-07 14:02 39.33771 22.24775 39121 ft 486 kts 144°
2026-05-07 14:03 39.28625 22.30454 39120 ft 487 kts 144°
2026-05-07 14:03 39.23471 22.36129 39117 ft 487 kts 144°
2026-05-07 14:04 39.18297 22.41815 39113 ft 489 kts 144°
2026-05-07 14:04 39.13098 22.47515 39114 ft 491 kts 144°
2026-05-07 14:05 39.07890 22.53217 39114 ft 492 kts 144°
2026-05-07 14:05 39.02669 22.58918 39115 ft 493 kts 144°
2026-05-07 14:06 38.97435 22.64624 39115 ft 494 kts 144°
2026-05-07 14:06 38.92192 22.70326 39114 ft 493 kts 144°
2026-05-07 14:07 38.86947 22.76021 39114 ft 494 kts 144°
2026-05-07 14:07 38.81681 22.81725 39111 ft 495 kts 144°
2026-05-07 14:08 38.76421 22.87414 39104 ft 495 kts 144°
2026-05-07 14:08 38.71150 22.93102 39103 ft 496 kts 145°
2026-05-07 14:09 38.65874 22.98784 39103 ft 495 kts 145°
2026-05-07 14:09 38.60599 23.04454 39103 ft 495 kts 145°
2026-05-07 14:10 38.55316 23.10121 39104 ft 495 kts 145°
2026-05-07 14:10 38.50037 23.15773 39104 ft 495 kts 145°
2026-05-07 14:11 38.44752 23.21420 39106 ft 495 kts 145°
2026-05-07 14:11 38.39476 23.27075 39108 ft 496 kts 145°
2026-05-07 14:12 38.34192 23.32709 39109 ft 495 kts 145°
2026-05-07 14:12 38.28897 23.38323 39111 ft 495 kts 145°
2026-05-07 14:13 38.23595 23.43930 39111 ft 495 kts 145°
2026-05-07 14:13 38.18299 23.49525 39111 ft 495 kts 145°
2026-05-07 14:14 38.12992 23.55130 39112 ft 496 kts 145°
2026-05-07 14:14 38.07690 23.60738 39113 ft 496 kts 145°
2026-05-07 14:15 38.02371 23.66317 39115 ft 496 kts 146°
2026-05-07 14:15 37.97050 23.71884 39121 ft 497 kts 146°
2026-05-07 14:16 37.91705 23.77468 39129 ft 498 kts 146°
2026-05-07 14:16 37.86715 23.83596 39136 ft 502 kts 135°
2026-05-07 14:17 37.82206 23.90360 39139 ft 503 kts 133°
2026-05-07 14:17 37.77694 23.97134 39140 ft 503 kts 134°
2026-05-07 14:18 37.73201 24.03923 39141 ft 503 kts 133°
2026-05-07 14:18 37.68682 24.10669 39141 ft 503 kts 134°
2026-05-07 14:19 37.64143 24.17402 39140 ft 504 kts 134°
2026-05-07 14:19 37.59594 24.24136 39142 ft 504 kts 134°
2026-05-07 14:20 37.54675 24.30349 39141 ft 499 kts 144°
2026-05-07 14:20 37.49024 24.35336 39143 ft 494 kts 154°
2026-05-07 14:21 37.43143 24.39810 39141 ft 494 kts 154°
2026-05-07 14:21 37.37264 24.44362 38956 ft 499 kts 154°
2026-05-07 14:21 37.34308 24.46662 38575 ft 498 kts 154°
2026-05-07 14:22 37.31362 24.48957 37901 ft 500 kts 154°
2026-05-07 14:22 37.28403 24.51262 37228 ft 502 kts 153°
2026-05-07 14:22 37.25437 24.53582 36583 ft 503 kts 153°
2026-05-07 14:22 37.22485 24.55902 36087 ft 500 kts 153°
2026-05-07 14:23 37.19539 24.58209 35590 ft 497 kts 153°
2026-05-07 14:23 37.16624 24.60503 35097 ft 494 kts 153°
2026-05-07 14:23 37.13711 24.62776 34606 ft 491 kts 153°
2026-05-07 14:23 37.10818 24.65024 34122 ft 488 kts 153°
2026-05-07 14:24 37.07937 24.67258 33643 ft 485 kts 152°
2026-05-07 14:24 37.05077 24.69472 33178 ft 482 kts 152°
2026-05-07 14:24 37.02240 24.71666 32715 ft 478 kts 152°
2026-05-07 14:24 36.99420 24.73845 32258 ft 475 kts 152°
2026-05-07 14:25 36.96618 24.76010 31808 ft 471 kts 152°
2026-05-07 14:25 36.93842 24.78152 31362 ft 467 kts 152°
2026-05-07 14:25 36.92019 24.79561 31070 ft 464 kts 152°
2026-05-07 14:25 36.89289 24.81694 30632 ft 460 kts 151°
2026-05-07 14:26 36.86582 24.83800 30202 ft 456 kts 151°
2026-05-07 14:26 36.83898 24.85883 29783 ft 452 kts 151°
2026-05-07 14:26 36.81237 24.87944 29354 ft 448 kts 151°
2026-05-07 14:26 36.78598 24.89986 28921 ft 445 kts 151°
2026-05-07 14:27 36.75980 24.92009 28489 ft 441 kts 151°
2026-05-07 14:27 36.73353 24.94034 28082 ft 436 kts 152°
2026-05-07 14:27 36.70680 24.95655 27998 ft 418 kts 165°
2026-05-07 14:27 36.67940 24.96640 27892 ft 405 kts 168°
2026-05-07 14:28 36.65248 24.97587 27571 ft 400 kts 168°
2026-05-07 14:28 36.62571 24.98523 27188 ft 398 kts 168°
2026-05-07 14:28 36.59914 24.99450 26804 ft 395 kts 168°
2026-05-07 14:28 36.57276 25.00370 26327 ft 395 kts 168°
2026-05-07 14:29 36.54571 25.01314 25587 ft 397 kts 168°
2026-05-07 14:29 36.51943 25.02229 24388 ft 400 kts 168°
2026-05-07 14:29 36.50118 25.02864 23522 ft 403 kts 168°